| time (UTC) | temp F | wind direction | speed MPH | gust MPH | rain 1hr in | rain 24hr in | rain mn in | humidity % | barometer mb |
| 20260510033010 | 47 | 147 | 0.0 | 0.0 | 0.00 | 0.00 | 0.00 | 97 | 1012.0 |
| 20260510031510 | 47 | 138 | 0.0 | 3.0 | 0.00 | 0.00 | 0.00 | 98 | 1011.7 |
| 20260510030010 | 47 | 183 | 0.0 | 4.0 | 0.00 | 0.00 | 0.00 | 97 | 1011.9 |
| 20260510024511 | 47 | 137 | 0.0 | 0.0 | 0.00 | 0.00 | 0.00 | 97 | 1011.6 |
| 20260510023009 | 48 | 132 | 0.0 | 5.0 | 0.00 | 0.00 | 0.00 | 97 | 1011.7 |
| 20260510021513 | 48 | 161 | 0.0 | 0.0 | 0.00 | 0.00 | 0.00 | 97 | 1011.8 |
| 20260510020008 | 48 | 144 | 0.0 | 0.0 | 0.00 | 0.00 | 0.00 | 97 | 1011.5 |
| 20260510014508 | 48 | 159 | 0.0 | 3.0 | 0.00 | 0.00 | 0.00 | 97 | 1011.5 |
| 20260510013007 | 49 | 155 | 0.0 | 0.0 | 0.00 | 0.00 | 0.00 | 97 | 1011.6 |
| 20260510011509 | 49 | 174 | 0.0 | 4.0 | 0.00 | 0.00 | 0.00 | 96 | 1011.4 |
| 20260510010007 | 49 | 166 | 0.0 | 3.0 | 0.00 | 0.00 | 0.00 | 96 | 1011.3 |
| 20260510004506 | 49 | 144 | 1.0 | 4.0 | 0.00 | 0.00 | 0.00 | 96 | 1011.0 |
| 20260510003018 | 50 | 167 | 0.0 | 6.0 | 0.00 | 0.00 | 0.00 | 96 | 1011.0 |
| 20260510001505 | 50 | 122 | 0.0 | 6.0 | 0.00 | 0.00 | 0.00 | 96 | 1010.9 |
| 20260510000005 | 50 | 134 | 0.0 | 3.0 | 0.00 | 0.00 | 0.00 | 95 | 1010.7 |
| 20260509234510 | 51 | 125 | 0.0 | 2.0 | 0.00 | 0.00 | 0.00 | 95 | 1010.5 |
| 20260509233004 | 51 | 134 | 0.0 | 2.0 | 0.00 | 0.00 | 0.00 | 95 | 1010.3 |
| 20260509231504 | 51 | 141 | 0.0 | 7.0 | 0.00 | 0.00 | 0.00 | 95 | 1010.4 |
| 20260509230003 | 51 | 180 | 1.0 | 6.0 | 0.00 | 0.00 | 0.00 | 95 | 1010.3 |
| 20260509224502 | 51 | 181 | 2.0 | 6.0 | 0.00 | 0.00 | 0.00 | 95 | 1010.2 |
| 20260509223002 | 51 | 130 | 0.0 | 8.0 | 0.00 | 0.00 | 0.00 | 95 | 1010.3 |
| 20260509221502 | 51 | 161 | 0.0 | 5.0 | 0.00 | 0.00 | 0.00 | 96 | 1010.2 |
| 20260509220001 | 51 | 162 | 3.0 | 6.0 | 0.00 | 0.00 | 0.00 | 96 | 1010.2 |
| 20260509214602 | 51 | 163 | 1.0 | 7.0 | 0.00 | 0.00 | 0.00 | 96 | 1010.4 |
| 20260509213057 | 51 | 152 | 0.0 | 5.0 | 0.00 | 0.00 | 0.00 | 97 | 1010.6 |
| 20260509211556 | 51 | 140 | 0.0 | 4.0 | 0.00 | 0.00 | 0.00 | 97 | 1010.8 |
| 20260509210052 | 50 | 69 | 1.0 | 6.0 | 0.00 | 0.00 | 0.00 | 98 | 1010.8 |
| 20260509204551 | 50 | 106 | 0.0 | 9.0 | 0.00 | 0.00 | 0.00 | 98 | 1010.9 |
| 20260509203114 | 49 | 157 | 1.0 | 9.0 | 0.00 | 0.00 | 0.00 | 98 | 1011.0 |
| 20260509201553 | 49 | 182 | 1.0 | 7.0 | 0.00 | 0.00 | 0.00 | 98 | 1011.1 |
| 20260509200055 | 49 | 110 | 1.0 | 9.0 | 0.00 | 0.00 | 0.00 | 98 | 1011.1 |
| 20260509194545 | 49 | 136 | 0.0 | 9.0 | 0.00 | 0.00 | 0.00 | 98 | 1011.3 |
| 20260509193047 | 49 | 135 | 0.0 | 8.0 | 0.00 | 0.00 | 0.00 | 98 | 1011.5 |
| 20260509191555 | 49 | 138 | 3.0 | 7.0 | 0.00 | 0.00 | 0.00 | 98 | 1011.5 |
| 20260509190042 | 49 | 121 | 2.0 | 6.0 | 0.00 | 0.00 | 0.00 | 98 | 1011.7 |
| 20260509184541 | 49 | 146 | 0.0 | 6.0 | 0.00 | 0.00 | 0.00 | 98 | 1011.6 |
| 20260509183047 | 49 | 144 | 1.0 | 5.0 | 0.00 | 0.00 | 0.00 | 98 | 1011.6 |
| 20260509181540 | 49 | 137 | 1.0 | 5.0 | 0.00 | 0.00 | 0.00 | 98 | 1011.6 |
| 20260509180041 | 49 | 153 | 0.0 | 5.0 | 0.00 | 0.00 | 0.00 | 98 | 1011.7 |
| 20260509174539 | 49 | 123 | 2.0 | 7.0 | 0.00 | 0.00 | 0.00 | 98 | 1011.6 |
| 20260509173039 | 49 | 127 | 1.0 | 6.0 | 0.00 | 0.00 | 0.00 | 98 | 1011.6 |
| 20260509171537 | 49 | 147 | 0.0 | 5.0 | 0.00 | 0.00 | 0.00 | 98 | 1011.5 |
| 20260509170037 | 49 | 146 | 0.0 | 3.0 | 0.00 | 0.00 | 0.00 | 98 | 1011.6 |
| 20260509164535 | 49 | 157 | 1.0 | 5.0 | 0.00 | 0.00 | 0.00 | 98 | 1011.7 |
| 20260509163033 | 49 | 183 | 1.0 | 4.0 | 0.00 | 0.00 | 0.00 | 98 | 1011.8 |
| 20260509161530 | 49 | 150 | 0.0 | 5.0 | 0.00 | 0.00 | 0.00 | 98 | 1012.0 |
| 20260509160028 | 48 | 152 | 0.0 | 0.0 | 0.00 | 0.00 | 0.00 | 98 | 1012.3 |
| 20260509154525 | 48 | 123 | 0.0 | 5.0 | 0.00 | 0.00 | 0.00 | 98 | 1012.4 |
| 20260509153023 | 48 | 140 | 0.0 | 4.0 | 0.00 | 0.00 | 0.00 | 98 | 1012.7 |
| 20260509151520 | 48 | 165 | 0.0 | 2.0 | 0.00 | 0.00 | 0.00 | 98 | 1013.0 |
| 20260509150019 | 48 | 150 | 0.0 | 1.0 | 0.00 | 0.00 | 0.00 | 98 | 1013.0 |
| 20260509144526 | 47 | 167 | 0.0 | 3.0 | 0.00 | 0.00 | 0.00 | 98 | 1013.1 |
| 20260509143018 | 47 | 140 | 0.0 | 3.0 | 0.00 | 0.00 | 0.00 | 98 | 1013.1 |
| 20260509141517 | 47 | 159 | 0.0 | 3.0 | 0.00 | 0.00 | 0.00 | 98 | 1012.9 |
| 20260509140015 | 47 | 128 | 0.0 | 4.0 | 0.00 | 0.00 | 0.00 | 98 | 1012.8 |
| 20260509134517 | 47 | 150 | 0.0 | 3.0 | 0.00 | 0.00 | 0.00 | 98 | 1012.9 |
| 20260509133015 | 46 | 159 | 1.0 | 4.0 | 0.00 | 0.00 | 0.00 | 98 | 1012.9 |
| 20260509131509 | 46 | 165 | 0.0 | 0.0 | 0.00 | 0.00 | 0.00 | 98 | 1013.0 |
| 20260509130008 | 46 | 165 | 0.0 | 0.0 | 0.00 | 0.00 | 0.00 | 98 | 1013.2 |
| 20260509124506 | 46 | 165 | 0.0 | 0.0 | 0.00 | 0.00 | 0.00 | 98 | 1013.3 |
| 20260509123008 | 46 | 165 | 0.0 | 1.0 | 0.00 | 0.00 | 0.00 | 98 | 1013.2 |
| 20260509121506 | 46 | 165 | 0.0 | 0.0 | 0.00 | 0.00 | 0.00 | 98 | 1013.3 |
| 20260509120005 | 45 | 166 | 0.0 | 3.0 | 0.00 | 0.00 | 0.00 | 98 | 1013.4 |
| 20260509114503 | 45 | 146 | 0.0 | 0.0 | 0.00 | 0.00 | 0.00 | 98 | 1013.3 |
| 20260509113002 | 45 | 144 | 0.0 | 0.0 | 0.00 | 0.00 | 0.00 | 98 | 1013.3 |
| 20260509111501 | 45 | 144 | 1.0 | 3.0 | 0.00 | 0.00 | 0.00 | 98 | 1013.4 |
| 20260509110059 | 45 | 144 | 0.0 | 2.0 | 0.00 | 0.00 | 0.00 | 97 | 1013.5 |
| 20260509104557 | 45 | 144 | 0.0 | 0.0 | 0.00 | 0.00 | 0.00 | 97 | 1013.4 |
| 20260509103101 | 45 | 144 | 1.0 | 3.0 | 0.00 | 0.00 | 0.00 | 97 | 1013.3 |
| 20260509101556 | 45 | 163 | 0.0 | 2.0 | 0.00 | 0.00 | 0.00 | 97 | 1013.3 |
| 20260509100055 | 45 | 163 | 0.0 | 3.0 | 0.00 | 0.00 | 0.00 | 97 | 1013.3 |
| 20260509094555 | 45 | 150 | 0.0 | 5.0 | 0.00 | 0.00 | 0.00 | 97 | 1013.3 |
| 20260509093054 | 45 | 153 | 0.0 | 0.0 | 0.00 | 0.00 | 0.00 | 97 | 1013.3 |
| 20260509091600 | 45 | 153 | 0.0 | 0.0 | 0.00 | 0.00 | 0.00 | 97 | 1013.2 |
| 20260509090053 | 45 | 153 | 0.0 | 0.0 | 0.00 | 0.00 | 0.00 | 97 | 1013.3 |
| 20260509084551 | 45 | 155 | 2.0 | 5.0 | 0.00 | 0.00 | 0.00 | 97 | 1013.6 |
| 20260509083048 | 45 | 156 | 0.0 | 0.0 | 0.00 | 0.00 | 0.00 | 96 | 1013.8 |
| 20260509081551 | 45 | 154 | 0.0 | 4.0 | 0.00 | 0.00 | 0.00 | 96 | 1013.9 |
| 20260509080046 | 45 | 182 | 0.0 | 3.0 | 0.00 | 0.00 | 0.00 | 96 | 1013.9 |
| 20260509074546 | 45 | 170 | 0.0 | 2.0 | 0.00 | 0.00 | 0.00 | 96 | 1014.0 |
| 20260509073045 | 45 | 157 | 0.0 | 0.0 | 0.00 | 0.00 | 0.00 | 96 | 1014.1 |
| 20260509071547 | 45 | 194 | 0.0 | 3.0 | 0.00 | 0.00 | 0.00 | 95 | 1014.1 |
| 20260509070042 | 44 | 202 | 0.0 | 2.0 | 0.00 | 0.00 | 0.00 | 95 | 1014.0 |
| 20260509064547 | 44 | 274 | 0.0 | 0.0 | 0.00 | 0.00 | 0.00 | 94 | 1014.2 |
| 20260509063039 | 44 | 274 | 0.0 | 0.0 | 0.00 | 0.00 | 0.00 | 94 | 1014.1 |
| 20260509061538 | 44 | 284 | 0.0 | 2.0 | 0.00 | 0.00 | 0.00 | 92 | 1014.3 |
| 20260509060033 | 43 | 284 | 0.0 | 0.0 | 0.00 | 0.00 | 0.00 | 87 | 1014.4 |
| 20260509054533 | 43 | 284 | 0.0 | 0.0 | 0.00 | 0.00 | 0.00 | 86 | 1014.5 |
| 20260509053032 | 43 | 284 | 0.0 | 0.0 | 0.00 | 0.00 | 0.00 | 88 | 1014.4 |
| 20260509051530 | 43 | 284 | 0.0 | 0.0 | 0.00 | 0.00 | 0.00 | 87 | 1014.5 |
| 20260509050039 | 42 | 284 | 0.0 | 0.0 | 0.00 | 0.00 | 0.00 | 87 | 1014.6 |
| 20260509044524 | 42 | 284 | 0.0 | 0.0 | 0.00 | 0.00 | 0.00 | 86 | 1014.6 |
| 20260509043020 | 42 | 284 | 0.0 | 0.0 | 0.00 | 0.00 | 0.00 | 85 | 1014.8 |
| 20260509041519 | 42 | 284 | 0.0 | 0.0 | 0.00 | 0.00 | 0.00 | 85 | 1014.9 |
| 20260509040017 | 42 | 284 | 0.0 | 0.0 | 0.00 | 0.00 | 0.00 | 85 | 1014.9 |
| 20260509034516 | 43 | 284 | 0.0 | 0.0 | 0.00 | 0.00 | 0.00 | 84 | 1014.7 |